Location: Unspecified
(0.0000°N, 0.0000°E)
Time: 12:11:15
(UTC+00:00)

Vanguard 1 - Visible Passes

Search period start: 23 January 2021 00:00
Search period end: 02 February 2021 00:00
Orbit: 648 x 3834 km, 34.3° (Epoch: 22 January)

Date Brightness Start Highest point End Pass type
(mag) Time Alt. Az. Time Alt. Az. Time Alt. Az.
23 Jan 12.2 19:11:35 10° NW 19:29:27 38° NNE 19:35:52 26° ENE visible
23 Jan 12.3 21:38:49 10° NW 21:48:40 41° WNW 21:48:40 41° WNW visible
24 Jan 11.9 19:32:50 10° NW 19:51:29 48° NNE 19:56:31 35° ENE visible
24 Jan 12.5 22:00:47 10° WNW 22:09:18 35° WNW 22:09:18 35° WNW visible
25 Jan 11.7 19:54:09 10° NW 20:13:14 62° NNE 20:17:14 46° E visible
25 Jan 12.8 22:23:12 10° WNW 22:30:02 27° W 22:30:02 27° W visible
26 Jan 11.5 20:15:38 10° NW 20:34:42 79° NE 20:38:03 56° ESE visible
26 Jan 13.1 22:46:14 10° W 22:50:51 19° W 22:50:51 19° W visible
27 Jan 12.8 18:09:42 10° NW 18:30:17 43° NNE 18:43:37 10° E visible
27 Jan 11.5 20:37:22 10° NW 20:55:54 80° SW 20:58:55 58° SE visible
27 Jan 13.4 23:10:09 10° W 23:11:43 12° WSW 23:11:43 12° WSW visible
28 Jan 12.5 18:30:58 10° NW 18:52:22 53° NNE 19:05:27 10° ESE visible
28 Jan 11.8 20:59:29 10° WNW 21:16:53 61° SW 21:19:49 50° S visible
29 Jan 12.3 18:52:18 10° NW 19:14:10 67° NE 19:26:55 10° ESE visible
29 Jan 12.1 21:22:02 10° WNW 21:37:44 44° SW 21:40:45 38° S visible
30 Jan 12.1 19:13:50 10° NW 19:35:41 83° NE 19:48:04 10° ESE visible
30 Jan 12.5 21:45:13 10° W 21:58:34 32° SW 22:01:39 28° SSW visible
31 Jan 12.2 19:35:37 10° NW 19:56:59 79° SW 20:08:57 10° SE visible
31 Jan 12.9 22:09:11 10° W 22:19:30 22° SW 22:22:30 20° SSW visible
01 Feb 12.2 05:29:17 10° S 05:32:33 17° SE 05:36:39 10° E visible
01 Feb 12.4 19:57:46 10° WNW 20:18:05 62° SW 20:29:36 10° SE visible
01 Feb 13.2 22:34:23 10° WSW 22:40:39 14° SW 22:43:18 13° SSW visible
